View from above orbital plane
|
View from above satellite
|
Ground track
|
The orbit data is extracted from the following two-line orbital elements,
1 25861U 99039B 21102.97743117 .00000026 00000-0 11149-4 0 9995
2 25861 98.2081 117.0667 0014294 276.6351 105.1428 14.78631930172025
Epoch (UTC): | 12 April 2021 23:27:30 |
Eccentricity: | 0.0014294 |
inclination: | 98.2081° |
perigee height: | 623 km |
apogee height: | 643 km |
right ascension of ascending node: | 117.0667° |
argument of perigee: | 276.6351° |
revolutions per day: | 14.78631930 |
mean anomaly at epoch: | 105.1428° |
orbit number at epoch: | 17202 |
The dashed part of the orbit path shows where the satellite is in the earth's shadow,
|
|